QPF
0.00 0.00 0.00 0.00 0.00 0.00 0.00 0.00 0.00 0.00 0.00 0.00 0.00 0.00 0.00 0.00 0.00 0.00 0.00 0.00 0.00 0.00 0.00 0.00 0.00 0.00 0.00 0.00 0.00 0.00 0.00 0.00 0.00 0.00 0.00 0.00 0.00 0.00 0.00 0.00 0.00 0.00 0.00 0.00
0.00 0.00 0.00 0.00 0.00 0.00 0.00 0.00 0.00 0.00 0.00 0.00 0.00 0.00 0.00 0.00 0.00 0.00 0.00 0.00 0.00 0.00 0.00 0.00 0.00 0.00 0.00 0.00 0.00 0.00 0.00 0.00 0.00 0.00 0.00 0.00 0.00 0.00 0.00 0.00 0.00 0.00 0.00 0.00
0.00 0.00 0.00 0.00 0.00 0.00 0.00 0.00 0.00 0.00 0.00 0.00 0.00 0.00 0.00 0.00 0.00 0.00 0.00 0.01 0.00 0.00 0.00 0.00 0.00 0.00 0.00 0.00 0.00 0.00 0.00 0.00 0.00 0.00 0.00 0.00 0.00 0.00 0.00 0.00 0.00 0.00 0.00 0.00
0.00 0.00 0.00 0.00 0.00 0.00 0.00 0.00 0.00 0.00 0.00 0.00 0.00 0.00 0.00 0.00 0.00 0.00 0.00 0.01 0.00 0.00 0.00 0.00 0.00 0.00 0.00 0.00 0.00 0.00 0.00 0.00 0.00 0.00 0.00 0.00 0.00 0.00 0.00 0.00 0.00 0.00 0.00 0.00
0.00 0.00 0.00 0.00 0.00 0.00 0.00 0.00 0.00 0.00 0.00 0.00 0.00 0.00 0.00 0.00 0.00 0.00 0.00 0.00 0.00 0.00 0.00 0.00 0.00 0.00 0.00 0.00 0.00 0.00 0.00 0.00 0.00 0.00 0.00 0.00 0.00 0.00 0.00 0.00 0.00 0.00 0.00 0.00
0.00 0.00 0.00 0.00 0.00 0.00 0.00 0.00 0.00 0.00 0.00 0.00 0.00 0.00 0.00 0.00 0.00 0.00 0.00 0.00 0.00 0.00 0.00 0.00 0.00 0.00 0.00 0.00 0.00 0.00 0.00 0.00 0.00 0.00 0.00 0.00 0.00 0.00 0.00 0.00 0.00 0.00 0.00 0.00
0.00 0.00 0.00 0.00 0.00 0.00 0.00 0.00 0.00 0.00 0.00 0.00 0.00 0.00 0.00 0.00 0.00 0.00 0.00 0.00 0.00 0.00 0.00 0.00 0.00 0.00 0.00 0.00 0.00 0.00 0.00 0.00 0.00 0.00 0.00 0.00 0.00 0.00 0.00 0.00 0.00 0.00 0.00 0.00
0.00 0.00 0.00 0.00 0.00 0.00 0.00 0.00 0.00 0.00 0.00 0.00 0.00 0.00 0.00 0.00 0.00 0.00 0.00 0.00 0.00 0.00 0.00 0.00 0.00 0.00 0.00 0.00 0.00 0.00 0.00 0.00 0.00 0.00 0.00 0.00 0.00 0.00 0.00 0.01 0.01 0.02 0.02 0.00
0.00 0.00 0.00 0.00 0.00 0.00 0.00 0.00 0.00 0.00 0.00 0.00 0.00 0.00 0.00 0.00 0.00 0.00 0.00 0.00 0.00 0.00 0.00 0.00 0.00 0.00 0.00 0.00 0.00 0.00 0.00 0.00 0.00 0.00 0.00 0.00 0.00 0.00 0.00 0.04 0.08 0.04 0.08 0.06
0.00 0.00 0.00 0.00 0.00 0.00 0.00 0.00 0.00 0.00 0.00 0.00 0.00 0.00 0.00 0.00 0.00 0.00 0.00 0.00 0.00 0.00 0.00 0.00 0.00 0.00 0.00 0.01 0.02 0.03 0.01 0.00 0.00 0.00 0.00 0.00 0.00 0.03 0.10 0.10 0.15 0.20 0.23 0.27
0.00 0.00 0.00 0.00 0.00 0.00 0.00 0.00 0.00 0.00 0.00 0.00 0.00 0.00 0.00 0.00 0.00 0.00 0.00 0.00 0.00 0.00 0.00 0.00 0.00 0.00 0.00 0.00 0.01 0.02 0.04 0.04 0.01 0.00 0.00 0.00 0.00 0.02 0.17 0.21 0.28 0.37 0.31 0.15
0.00 0.00 0.00 0.00 0.00 0.00 0.00 0.00 0.00 0.00 0.00 0.00 0.00 0.00 0.00 0.00 0.00 0.00 0.00 0.00 0.00 0.00 0.00 0.00 0.00 0.00 0.00 0.00 0.00 0.01 0.06 0.18 0.26 0.15 0.11 0.08 0.07 0.31 0.28 0.48 1.11 0.71 0.24 0.10
0.00 0.00 0.00 0.00 0.00 0.00 0.00 0.00 0.00 0.00 0.00 0.00 0.00 0.00 0.00 0.00 0.00 0.00 0.00 0.00 0.00 0.00 0.00 0.00 0.00 0.00 0.00 0.00 0.02 0.05 0.17 0.20 0.09 0.09 0.24 0.37 0.64 0.47 0.12 0.12 0.14 0.08 0.06 0.05
0.00 0.00 0.00 0.00 0.00 0.00 0.00 0.00 0.00 0.00 0.00 0.00 0.00 0.00 0.00 0.00 0.00 0.00 0.00 0.00 0.00 0.00 0.00 0.00 0.00 0.00 0.00 0.00 0.01 0.01 0.07 0.28 0.26 0.16 0.23 0.28 0.30 0.33 0.14 0.10 0.05 0.03 0.03 0.03
0.00 0.00 0.00 0.00 0.00 0.00 0.00 0.00 0.00 0.00 0.00 0.00 0.00 0.00 0.00 0.00 0.00 0.00 0.00 0.00 0.00 0.00 0.00 0.00 0.00 0.00 0.00 0.00 0.00 0.00 0.05 0.05 0.02 0.02 0.04 0.05 0.06 0.07 0.07 0.07 0.03 0.02 0.01 0.02
0.01 0.01 0.00 0.00 0.00 0.00 0.00 0.00 0.00 0.00 0.00 0.00 0.00 0.00 0.00 0.00 0.00 0.00 0.00 0.00 0.00 0.00 0.00 0.00 0.00 0.00 0.00 0.00 0.00 0.00 0.02 0.04 0.04 0.03 0.02 0.02 0.03 0.05 0.05 0.04 0.03 0.01 0.01 0.01
0.05 0.02 0.00 0.00 0.00 0.00 0.00 0.00 0.00 0.00 0.00 0.00 0.00 0.00 0.00 0.00 0.00 0.00 0.00 0.00 0.00 0.00 0.00 0.00 0.00 0.00 0.00 0.00 0.00 0.00 0.00 0.02 0.02 0.02 0.02 0.02 0.03 0.02 0.02 0.02 0.01 0.00 0.00 0.00
0.14 0.06 0.02 0.00 0.00 0.02 0.02 0.00 0.00 0.00 0.00 0.00 0.00 0.00 0.00 0.00 0.00 0.00 0.00 0.00 0.00 0.00 0.00 0.00 0.00 0.00 0.00 0.00 0.00 0.00 0.00 0.00 0.00 0.01 0.01 0.01 0.01 0.02 0.01 0.00 0.00 0.00 0.00 0.00
0.13 0.16 0.17 0.04 0.00 0.00 0.00 0.00 0.00 0.00 0.00 0.00 0.00 0.00 0.00 0.00 0.00 0.00 0.00 0.00 0.00 0.00 0.00 0.00 0.00 0.00 0.00 0.00 0.00 0.00 0.00 0.00 0.00 0.00 0.00 0.01 0.01 0.01 0.00 0.00 0.00 0.00 0.00 0.00
0.19 0.21 0.16 0.14 0.03 0.00 0.00 0.00 0.00 0.00 0.00 0.00 0.00 0.00 0.00 0.00 0.00 0.00 0.00 0.00 0.00 0.00 0.00 0.00 0.00 0.00 0.00 0.00 0.00 0.00 0.00 0.00 0.00 0.00 0.00 0.00 0.00 0.00 0.00 0.00 0.00 0.00 0.00 0.00
0.09 0.26 0.24 0.19 0.08 0.00 0.00 0.00 0.00 0.00 0.00 0.00 0.00 0.00 0.00 0.00 0.00 0.00 0.00 0.00 0.00 0.00 0.00 0.00 0.00 0.00 0.00 0.00 0.00 0.00 0.00 0.00 0.00 0.00 0.00 0.00 0.00 0.00 0.00 0.00 0.00 0.00 0.00 0.00
0.02 0.10 0.17 0.19 0.15 0.02 0.00 0.00 0.01 0.00 0.00 0.00 0.00 0.00 0.00 0.00 0.00 0.00 0.00 0.00 0.00 0.00 0.00 0.00 0.00 0.00 0.00 0.00 0.00 0.00 0.00 0.00 0.00 0.00 0.00 0.00 0.00 0.00 0.00 0.00 0.00 0.00 0.00 0.00
0.01 0.00 0.01 0.03 0.02 0.00 0.00 0.00 0.01 0.00 0.00 0.00 0.00 0.00 0.00 0.00 0.00 0.00 0.00 0.00 0.00 0.00 0.00 0.00 0.00 0.00 0.00 0.00 0.00 0.00 0.00 0.00 0.00 0.00 0.00 0.00 0.00 0.00 0.00 0.00 0.00 0.00 0.00 0.00
0.00 0.00 0.00 0.00 0.00 0.00 0.00 0.00 0.00 0.00 0.00 0.00 0.00 0.00 0.00 0.00 0.00 0.00 0.00 0.00 0.00 0.00 0.00 0.00 0.00 0.00 0.00 0.00 0.00 0.00 0.00 0.00 0.00 0.00 0.00 0.00 0.00 0.00 0.00 0.00 0.00 0.00 0.00 0.00
0.00 0.00 0.00 0.00 0.00 0.00 0.00 0.00 0.00 0.00 0.00 0.00 0.00 0.00 0.00 0.00 0.00 0.00 0.00 0.00 0.00 0.00 0.00 0.00 0.00 0.00 0.00 0.00 0.00 0.00 0.00 0.00 0.00 0.00 0.00 0.00 0.00 0.00 0.00 0.00 0.00 0.00 0.00 0.00
0.00 0.01 0.00 0.00 0.00 0.01 0.00 0.00 0.00 0.00 0.00 0.00 0.00 0.00 0.00 0.00 0.00 0.00 0.00 0.00 0.00 0.00 0.00 0.00 0.00 0.00 0.00 0.00 0.00 0.00 0.00 0.00 0.00 0.00 0.00 0.00 0.00 0.00 0.00 0.00 0.00 0.00 0.00 0.00
MSLP
1009.09 1009.58 1009.29 1009.87 1010.08 1009.94 1010.29 1009.98 1009.44 1008.42 1007.92 1007.84 1008.37 1009.23 1009.29 1009.54 1010.29 1010.56 1010.95 1011.68 1012.09 1012.42 1013.41 1014.17 1014.45 1014.85 1015.45 1015.85 1016.18 1016.32 1016.53 1016.89 1017.16 1017.53 1017.86 1018.13 1018.03 1017.97 1018.10 1018.46 1018.54 1019.16 1019.53 1019.75
1009.54 1008.43 1008.58 1009.31 1009.64 1009.80 1009.90 1009.57 1008.82 1007.86 1007.00 1007.70 1007.72 1008.27 1008.40 1009.01 1009.28 1009.84 1010.55 1011.37 1011.61 1012.28 1013.14 1013.92 1014.52 1014.97 1015.09 1015.51 1016.12 1016.55 1016.76 1017.10 1017.31 1017.35 1017.56 1017.83 1017.86 1018.13 1018.26 1018.13 1018.61 1019.08 1019.29 1019.36
1008.63 1007.70 1007.73 1008.62 1008.78 1009.14 1008.83 1008.72 1008.13 1007.61 1006.93 1007.05 1007.48 1007.92 1008.19 1008.47 1008.85 1009.48 1009.80 1010.31 1010.77 1011.07 1012.09 1013.06 1013.90 1014.68 1015.04 1015.23 1015.51 1015.96 1016.37 1016.62 1016.90 1017.06 1017.34 1017.70 1018.05 1018.24 1018.22 1018.29 1018.27 1018.73 1018.73 1018.68
1008.29 1007.39 1007.82 1007.90 1007.84 1008.10 1008.02 1007.42 1007.22 1007.19 1007.35 1007.74 1007.59 1008.02 1008.10 1007.65 1007.55 1008.63 1008.79 1009.51 1009.70 1010.38 1011.44 1012.20 1012.87 1013.75 1014.26 1014.40 1014.86 1015.34 1015.89 1016.40 1016.74 1017.08 1017.28 1017.52 1017.57 1017.67 1017.62 1017.76 1018.22 1018.30 1018.35 1018.57
1006.73 1006.71 1006.79 1007.04 1006.58 1006.77 1006.83 1006.65 1006.77 1007.01 1007.42 1007.88 1007.97 1008.35 1007.04 1006.83 1007.18 1007.07 1007.34 1008.04 1008.55 1008.89 1009.82 1011.07 1011.58 1012.25 1012.96 1013.98 1014.41 1014.96 1015.56 1015.93 1015.98 1016.23 1016.50 1016.86 1016.99 1017.14 1017.20 1017.54 1017.73 1017.85 1018.04 1018.09
1006.52 1006.08 1006.20 1005.88 1005.81 1006.00 1006.18 1006.26 1006.61 1007.20 1008.10 1008.43 1008.14 1008.11 1006.83 1006.37 1005.53 1005.18 1005.57 1006.62 1007.39 1008.12 1009.08 1009.85 1010.80 1011.63 1012.30 1013.14 1013.86 1014.32 1014.81 1015.11 1015.52 1015.80 1016.18 1016.38 1016.62 1016.83 1016.94 1017.17 1017.57 1017.68 1017.76 1017.87
1006.48 1005.77 1005.50 1005.41 1005.49 1005.31 1005.81 1006.41 1007.60 1008.38 1008.96 1008.68 1008.08 1007.68 1005.90 1004.41 1003.46 1003.30 1003.90 1005.07 1006.02 1007.00 1008.17 1009.19 1009.98 1010.63 1011.53 1012.08 1012.81 1013.50 1013.91 1014.21 1014.61 1015.13 1015.48 1015.84 1016.09 1016.19 1016.38 1016.52 1016.73 1017.01 1017.19 1017.35
1005.72 1005.37 1004.94 1004.26 1004.48 1004.63 1005.12 1006.08 1007.63 1008.19 1009.30 1008.93 1008.18 1006.94 1004.67 1003.24 1002.35 1002.37 1002.73 1003.51 1004.88 1006.28 1006.97 1007.57 1008.19 1009.01 1009.92 1010.73 1011.51 1012.33 1012.77 1013.28 1013.63 1014.14 1014.62 1015.10 1015.27 1015.56 1015.54 1015.81 1015.78 1016.25 1016.32 1016.37
1004.99 1004.54 1003.72 1003.44 1003.73 1003.90 1004.58 1005.44 1005.99 1007.60 1008.97 1009.24 1008.18 1006.35 1004.29 1002.93 1002.33 1002.37 1002.81 1003.58 1004.52 1005.24 1005.76 1006.31 1007.14 1007.92 1008.66 1009.65 1009.92 1010.45 1011.20 1011.75 1012.25 1012.94 1013.70 1013.94 1014.24 1014.54 1014.87 1015.16 1015.37 1015.51 1015.81 1016.16
1004.53 1004.34 1003.55 1003.14 1003.27 1002.98 1003.33 1004.43 1006.13 1007.40 1008.74 1009.21 1007.90 1006.70 1004.86 1003.27 1002.39 1002.30 1002.78 1003.12 1003.66 1004.30 1004.79 1005.19 1005.94 1006.53 1007.24 1008.00 1008.88 1010.00 1010.09 1010.11 1010.44 1011.45 1012.10 1012.56 1013.27 1013.93 1014.15 1014.43 1014.92 1015.17 1015.31 1015.81
1004.40 1004.39 1003.74 1003.27 1002.32 1002.82 1003.15 1004.18 1005.16 1006.30 1007.48 1008.35 1008.16 1006.11 1004.11 1003.17 1002.17 1002.33 1002.65 1002.47 1002.71 1003.26 1003.76 1004.28 1004.92 1005.40 1006.06 1006.74 1008.28 1008.24 1009.21 1009.76 1010.27 1010.62 1010.99 1012.19 1012.45 1012.88 1013.55 1014.30 1014.82 1015.30 1014.67 1014.60
1003.81 1003.88 1003.82 1003.05 1002.44 1002.15 1002.54 1003.20 1004.37 1005.74 1006.87 1007.27 1007.09 1005.34 1003.59 1002.98 1002.32 1002.03 1002.31 1002.35 1002.11 1002.17 1002.60 1003.17 1003.67 1004.31 1005.32 1006.05 1006.80 1007.18 1008.18 1009.60 1010.71 1011.29 1011.89 1011.98 1012.74 1013.06 1013.18 1013.67 1013.66 1013.79 1013.89 1015.31
1003.95 1003.77 1004.06 1003.37 1002.78 1001.98 1002.26 1002.59 1003.42 1004.39 1005.44 1005.99 1006.45 1004.96 1003.16 1002.85 1002.62 1002.30 1002.18 1002.37 1001.89 1001.98 1002.42 1002.68 1003.10 1003.67 1004.43 1005.11 1005.72 1006.36 1007.49 1008.52 1009.17 1009.92 1010.04 1011.04 1011.69 1011.87 1012.67 1013.00 1013.00 1013.51 1013.88 1014.68
1004.50 1004.25 1003.06 1002.09 1002.17 1001.99 1001.82 1001.84 1002.40 1003.28 1004.55 1005.01 1004.64 1004.03 1003.30 1002.80 1002.10 1001.78 1001.60 1001.84 1001.76 1001.72 1001.98 1002.51 1002.99 1003.33 1003.88 1004.26 1004.86 1005.55 1006.45 1007.30 1007.96 1008.20 1008.86 1009.78 1010.15 1010.65 1011.13 1012.67 1013.02 1013.51 1013.78 1014.60
1005.87 1004.84 1003.53 1002.53 1002.07 1001.88 1001.63 1001.57 1001.80 1002.08 1002.68 1003.26 1003.46 1002.93 1002.59 1002.11 1001.55 1001.03 1001.01 1001.16 1001.59 1001.70 1001.89 1002.17 1003.12 1003.48 1004.00 1004.09 1004.33 1004.91 1005.62 1006.36 1007.18 1008.17 1008.52 1009.52 1009.91 1010.69 1011.70 1012.46 1012.95 1013.54 1014.00 1014.77
1006.52 1005.83 1004.19 1003.14 1002.43 1001.74 1001.46 1001.31 1001.13 1001.13 1001.48 1001.72 1001.81 1001.47 1000.88 1000.30 1000.23 1000.62 1000.72 1000.57 1000.95 1001.13 1001.37 1001.77 1002.66 1003.47 1004.09 1004.45 1004.89 1005.38 1005.78 1006.61 1007.22 1008.17 1009.20 1009.78 1010.49 1011.32 1011.98 1012.36 1013.00 1013.75 1014.55 1015.34
1007.71 1007.83 1006.72 1004.21 1003.46 1002.30 1001.35 999.83 1000.55 1000.51 1000.61 1000.73 1000.83 1000.67 999.91 999.64 999.52 999.73 999.94 1000.07 1000.14 1000.35 1000.83 1001.55 1002.19 1002.76 1003.55 1004.11 1004.42 1005.20 1005.93 1006.83 1007.77 1008.60 1009.32 1010.22 1010.89 1011.56 1012.01 1012.67 1013.50 1014.24 1014.91 1015.44
1007.27 1008.14 1008.24 1006.39 1004.93 1003.00 999.28 999.76 999.92 999.90 999.68 999.56 999.72 999.63 999.13 999.01 998.73 998.81 998.81 999.08 999.27 999.53 1000.21 1000.93 1001.54 1002.42 1003.40 1004.09 1004.95 1005.73 1006.41 1007.05 1007.73 1008.70 1009.49 1010.32 1011.16 1011.81 1012.31 1013.05 1013.62 1014.28 1014.96 1015.61
1006.97 1007.89 1008.75 1007.83 1005.44 1002.47 1000.42 999.54 999.19 999.25 999.12 998.84 998.78 998.84 998.67 998.50 998.81 998.49 998.19 998.06 998.53 998.86 999.44 1000.21 1000.79 1002.19 1003.47 1004.44 1005.12 1005.88 1006.74 1007.37 1007.87 1008.46 1009.20 1010.13 1010.92 1011.63 1012.22 1012.84 1013.53 1014.22 1014.98 1015.94
1007.70 1008.10 1008.46 1008.48 1006.44 1003.03 1000.34 999.55 998.62 998.76 998.73 998.37 998.28 998.58 998.77 998.77 999.03 998.59 997.93 998.01 998.57 999.10 1000.01 1000.79 1001.75 1002.72 1003.78 1004.81 1005.35 1005.97 1006.71 1007.35 1008.03 1008.45 1009.04 1009.66 1010.51 1011.19 1011.85 1012.48 1013.36 1014.30 1015.11 1015.96
1007.84 1007.76 1008.39 1007.73 1006.43 1003.37 1000.72 999.77 998.86 999.25 998.98 998.71 998.46 998.00 998.56 998.85 998.32 997.67 997.90 998.36 998.63 999.15 1000.12 1000.93 1001.92 1002.67 1003.56 1004.47 1005.19 1006.13 1006.89 1007.46 1008.07 1008.81 1009.39 1009.88 1010.62 1011.32 1012.04 1012.74 1013.68 1014.55 1015.48 1016.47
1006.74 1007.22 1007.09 1007.05 1006.26 1002.61 999.85 999.35 999.78 1000.14 999.11 998.50 998.47 998.52 999.01 998.40 998.35 998.08 998.17 998.58 999.08 999.89 1000.55 1001.38 1002.04 1002.94 1003.82 1004.46 1005.03 1005.95 1006.88 1007.55 1008.30 1009.07 1009.74 1010.43 1011.15 1011.79 1012.44 1013.11 1014.10 1014.93 1015.80 1016.86
1005.42 1004.31 1005.41 1004.96 1003.86 1001.03 999.24 999.65 999.75 1000.07 999.93 999.66 998.91 998.85 998.84 999.44 998.54 998.56 998.93 999.16 999.60 999.89 1000.67 1001.49 1002.11 1003.12 1003.96 1004.57 1005.11 1006.10 1006.98 1007.57 1008.39 1009.17 1010.01 1010.75 1011.45 1012.13 1012.67 1013.58 1014.60 1015.61 1016.41 1017.14
1003.98 1003.59 1003.68 1003.34 1001.66 1000.29 999.70 998.96 998.65 999.28 999.62 999.20 999.11 998.85 999.12 999.61 999.52 999.28 998.99 999.53 1000.16 1000.81 1001.22 1001.67 1002.55 1003.51 1004.29 1004.74 1005.30 1005.95 1006.86 1007.71 1008.70 1009.80 1010.68 1011.51 1012.33 1013.09 1013.74 1014.46 1015.23 1016.09 1016.96 1017.76
1003.02 1002.86 1002.58 1002.03 1001.20 1000.34 999.72 999.42 998.85 998.69 998.84 999.00 999.19 999.16 999.42 999.00 999.30 999.64 999.40 999.65 999.95 1000.84 1001.66 1002.11 1002.80 1003.84 1004.74 1005.23 1005.93 1006.53 1007.22 1008.01 1009.18 1010.34 1011.29 1012.28 1013.18 1014.06 1015.16 1016.13 1016.78 1017.26 1017.90 1018.03
1003.19 1002.72 1002.51 1001.37 1000.44 999.81 999.16 998.53 997.86 998.57 998.76 998.91 998.97 999.15 999.58 999.62 999.13 999.25 999.70 999.92 1000.27 1001.06 1001.93 1002.82 1003.43 1004.35 1005.32 1005.95 1006.63 1007.20 1007.63 1008.38 1009.73 1011.32 1012.33 1013.28 1014.15 1015.10 1016.04 1016.97 1017.99 1018.48 1018.83 1018.94
Thickness
5661 5645 5649 5644 5646 5652 5645 5640 5639 5655 5658 5656 5652 5644 5651 5655 5649 5649 5645 5640 5637 5631 5620 5616 5617 5615 5610 5604 5600 5598 5595 5591 5589 5586 5585 5584 5587 5589 5589 5587 5589 5586 5585 5583
5645 5652 5660 5654 5650 5647 5642 5641 5644 5657 5671 5656 5658 5652 5656 5655 5655 5651 5647 5640 5640 5634 5623 5619 5616 5613 5614 5609 5603 5599 5595 5590 5590 5593 5591 5584 5587 5588 5588 5594 5591 5586 5586 5587
5640 5662 5665 5654 5649 5642 5645 5642 5645 5647 5661 5661 5658 5649 5649 5657 5658 5650 5651 5649 5649 5645 5632 5627 5622 5616 5614 5613 5610 5606 5602 5599 5597 5596 5595 5592 5590 5588 5593 5593 5594 5590 5592 5593
5635 5664 5653 5649 5649 5646 5635 5658 5658 5655 5645 5624 5653 5618 5643 5655 5660 5653 5655 5651 5654 5649 5638 5633 5630 5623 5618 5618 5615 5612 5607 5602 5599 5598 5597 5594 5595 5595 5597 5596 5590 5593 5591 5591
5644 5652 5648 5642 5657 5657 5651 5661 5659 5659 5645 5635 5639 5621 5640 5657 5654 5659 5662 5661 5659 5659 5651 5641 5638 5634 5628 5620 5618 5614 5610 5607 5607 5605 5603 5600 5599 5598 5599 5595 5595 5594 5591 5594
5643 5661 5652 5656 5663 5661 5666 5659 5656 5649 5633 5611 5634 5621 5627 5642 5662 5671 5673 5668 5665 5662 5653 5650 5644 5638 5632 5625 5620 5617 5613 5612 5610 5608 5604 5602 5600 5599 5598 5597 5593 5593 5594 5593
5636 5644 5655 5656 5648 5660 5653 5637 5609 5603 5603 5605 5635 5627 5638 5664 5680 5685 5680 5674 5673 5667 5657 5651 5647 5642 5637 5632 5627 5622 5619 5617 5614 5610 5607 5603 5601 5602 5600 5599 5597 5596 5596 5594
5619 5615 5643 5661 5652 5649 5645 5637 5602 5604 5588 5607 5630 5623 5650 5679 5688 5690 5690 5687 5678 5669 5664 5661 5659 5654 5648 5641 5636 5629 5626 5621 5619 5614 5609 5606 5605 5602 5603 5601 5602 5598 5598 5599
5616 5622 5657 5658 5659 5658 5644 5623 5652 5619 5613 5595 5613 5639 5664 5676 5683 5685 5676 5681 5676 5673 5671 5668 5664 5660 5655 5646 5644 5641 5636 5632 5627 5621 5614 5613 5610 5608 5605 5604 5602 5601 5600 5596
5626 5612 5645 5653 5654 5659 5653 5654 5620 5611 5599 5592 5613 5621 5632 5663 5676 5681 5675 5676 5679 5677 5675 5676 5672 5668 5663 5656 5649 5640 5640 5641 5638 5630 5625 5621 5614 5606 5606 5604 5601 5599 5596 5592
5624 5614 5622 5638 5637 5633 5639 5628 5630 5626 5612 5592 5586 5610 5650 5659 5677 5674 5676 5678 5680 5679 5681 5681 5678 5675 5669 5663 5649 5650 5643 5638 5634 5632 5628 5615 5613 5611 5604 5599 5595 5590 5591 5596
5618 5611 5602 5623 5644 5654 5650 5640 5631 5606 5611 5607 5595 5619 5663 5662 5669 5677 5674 5679 5682 5686 5685 5685 5686 5680 5671 5664 5659 5657 5647 5633 5625 5618 5610 5611 5604 5602 5601 5597 5596 5582 5593 5576
5607 5597 5586 5602 5620 5638 5626 5636 5641 5629 5620 5609 5589 5611 5662 5658 5661 5667 5671 5671 5681 5684 5680 5676 5676 5679 5673 5669 5666 5660 5649 5639 5633 5626 5620 5612 5605 5604 5597 5596 5593 5590 5586 5582
5591 5594 5602 5603 5618 5625 5625 5634 5643 5637 5595 5609 5605 5629 5645 5652 5658 5666 5669 5670 5671 5679 5683 5676 5670 5672 5671 5673 5669 5661 5654 5646 5638 5632 5627 5621 5614 5605 5605 5591 5588 5584 5583 5576
5574 5582 5605 5614 5622 5627 5626 5628 5635 5631 5630 5612 5625 5626 5640 5649 5660 5667 5670 5670 5667 5668 5674 5678 5666 5664 5662 5661 5659 5658 5654 5647 5639 5629 5626 5615 5608 5602 5593 5584 5582 5576 5572 5565
5566 5572 5593 5600 5610 5623 5618 5625 5628 5632 5633 5630 5634 5632 5656 5664 5664 5659 5662 5671 5665 5667 5671 5675 5669 5663 5658 5654 5650 5643 5643 5635 5628 5620 5611 5605 5600 5591 5581 5580 5575 5567 5559 5551
5547 5548 5553 5578 5594 5607 5590 5616 5619 5628 5632 5631 5617 5635 5660 5660 5659 5660 5664 5666 5666 5670 5669 5666 5665 5665 5658 5652 5649 5641 5632 5625 5617 5609 5601 5593 5586 5578 5573 5569 5562 5554 5547 5541
5545 5538 5539 5550 5566 5564 5623 5627 5626 5623 5635 5644 5641 5642 5654 5657 5666 5665 5670 5670 5669 5671 5668 5665 5664 5658 5650 5644 5637 5631 5624 5618 5610 5602 5595 5585 5576 5569 5566 5559 5553 5546 5538 5530
5543 5531 5522 5539 5559 5592 5605 5618 5620 5620 5622 5640 5642 5647 5652 5658 5657 5663 5671 5675 5673 5671 5668 5665 5664 5651 5640 5633 5628 5622 5614 5609 5604 5597 5588 5579 5570 5563 5556 5551 5543 5535 5526 5517
5522 5525 5522 5516 5537 5562 5604 5614 5631 5633 5600 5640 5645 5641 5642 5642 5626 5639 5667 5670 5666 5663 5656 5651 5645 5636 5627 5620 5617 5613 5607 5602 5596 5590 5583 5576 5567 5559 5552 5544 5534 5525 5517 5509
5498 5501 5514 5520 5528 5551 5585 5602 5620 5590 5604 5627 5634 5638 5640 5633 5639 5657 5658 5660 5659 5656 5649 5644 5637 5631 5622 5614 5609 5601 5594 5590 5584 5576 5570 5564 5556 5548 5540 5532 5522 5513 5503 5493
5503 5506 5511 5508 5518 5539 5593 5600 5591 5592 5609 5622 5626 5626 5628 5636 5639 5644 5649 5648 5647 5641 5638 5635 5629 5620 5612 5607 5601 5592 5585 5579 5572 5564 5557 5549 5541 5534 5526 5518 5508 5500 5490 5478
5512 5534 5518 5530 5535 5567 5591 5585 5591 5590 5592 5599 5612 5615 5620 5615 5627 5633 5635 5636 5636 5635 5628 5623 5617 5607 5602 5596 5592 5582 5573 5568 5559 5552 5544 5536 5529 5520 5514 5503 5493 5483 5474 5465
5524 5536 5529 5538 5559 5565 5576 5590 5595 5591 5588 5597 5599 5607 5610 5610 5614 5620 5625 5623 5620 5615 5614 5610 5605 5596 5587 5583 5578 5572 5563 5554 5544 5533 5525 5517 5508 5499 5492 5484 5475 5465 5454 5447
5529 5536 5542 5539 5551 5564 5571 5575 5584 5589 5591 5590 5593 5599 5599 5606 5605 5604 5610 5612 5614 5608 5600 5599 5593 5584 5574 5570 5562 5556 5549 5540 5528 5517 5508 5497 5487 5478 5465 5454 5446 5439 5431 5426
5519 5526 5526 5531 5552 5559 5566 5582 5588 5581 5582 5584 5589 5590 5589 5592 5600 5602 5601 5602 5600 5595 5586 5579 5575 5567 5559 5553 5546 5539 5533 5525 5510 5494 5484 5473 5464 5454 5444 5434 5422 5414 5407 5402